Regional Weather Roundup
Issued by NWS

Home | Current Version | Previous Version | Graphics & Text | Print | Product List | Glossary Off
Versions: 1 2 3 4 5 6 7 8 9 10 11 12 13 14 15 16 17 18 19 20 21 22 23 24 25 26 27 28 29 30 31 32 33 34 35 36 37 38 39 40 41 42 43 44 45 46 47 48 49 50

000
ASUS43 KDTX 021610
RWRMI
MICHIGAN HOURLY REGIONAL WEATHER ROUNDUP
NATIONAL WEATHER SERVICE DETROIT/PONTIAC MI
1200 PM EDT THU OCT 02 2014

NOTE: "FAIR" INDICATES FEW OR NO CLOUDS BELOW 12,000 FEET WITH NO
SIGNIFICANT WEATHER AND/OR OBSTRUCTION TO VISIBILITY.

MIZ047>049-052>055-059>063-066>070-074>076-081>083-021700-
SOUTHEAST LOWER MICHIGAN

CITY           SKY/WX    TMP DP  RH WIND       PRES   REMARKS
ADRIAN         CLOUDY    67  57  70 S8        29.99S
ALMA           LGT RAIN  59  56  89 S5        29.97R
ANN ARBOR      CLOUDY    68  55  63 SE10      29.98F
BAD AXE        CLOUDY    62  60  93 SE9       30.01F FOG
DETROIT CITY   CLOUDY    61  55  81 S5        30.02S
DETROIT        CLOUDY    67  57  70 SE6       30.00F
FLINT          CLOUDY    66  56  70 SE9       29.98F
GROSSE ILE     CLOUDY    66  59  77 SE9       29.99F
HILLSDALE      CLOUDY    65  58  77 SE5       29.98S
HOWELL         CLOUDY    63  56  79 MISG      29.98F

CITY           SKY/WX    TMP DP  RH WIND       PRES   REMARKS
JACKSON        CLOUDY    63  55  75 S7        29.99R
LAMBERTVILLE   CLOUDY    70  55  60 SE7       29.98F
LANSING        CLOUDY    63  53  70 S8        29.97R
LAPEER         NOT AVBL
MASON          CLOUDY    64  54  70 S8        29.98R
MONROE         CLOUDY    68  57  68 SE7       29.98F
MT. CLEMENS    PTSUNNY   66  60  80 S12       30.00S HAZE
PONTIAC        CLOUDY    65  55  70 SE8       30.00F
PORT HOPE        N/A     62  58  86 SE8       30.00F
PORT HURON     PTSUNNY   66  59  77 S9        30.03S
TRI CITIES     CLOUDY    63  58  83 SE8       29.97F
YPSILANTI      CLOUDY    72  57  59 SE7       30.00F
$$
MIZ043>046-050>051-056>058-064>065-071>073-077>080-021700-
SOUTHWEST LOWER MICHIGAN

CITY           SKY/WX    TMP DP  RH WIND       PRES   REMARKS
BATTLE CREEK   CLOUDY    62  54  74 S8        29.95F
BENTON HARBOR  CLOUDY    64  60  87 SE3       29.91F
BIG RAPIDS     LGT RAIN  58  58 100 SE10      29.92F
COLDWATER      CLOUDY    65  56  71 SE6       29.96S
GRAND RAPIDS   CLOUDY    63  58  83 SE7       29.93F
KALAMAZOO      PTSUNNY   64  55  72 S6        29.94F
MARSHALL       CLOUDY    62  54  76 SE7       29.95F
MUSKEGON       CLOUDY    61  57  87 SE9       29.90F
$$
MIZ016>042-021700-
NORTHERN LOWER MICHIGAN

CITY           SKY/WX    TMP DP  RH WIND       PRES   REMARKS
ALPENA           N/A     60  57  89 SE8       29.98F
BEAVER ISLAND  CLOUDY    58  57  96 SE8       29.90F FOG
BELLAIRE       LGT RAIN  59  56  91 CALM      29.92S
CADILLAC       DRIZZLE   56  56  99 SE7       29.92F
CHARLEVOIX     LGT RAIN  58  58 100 SE7       29.93F
FRANKFORT      HVY RAIN  60  56  89 SE6       29.89S
GAYLORD        RAIN      55  54  96 SE10      29.95S FOG
GRAYLING       RAIN      57  57 100 E7        29.96S
HARBOR SPRINGS RAIN      57  55  95 NE7       29.92F
HOUGHTON LAKE  LGT RAIN  57  55  93 SE7       29.97S FOG
OSCODA         CLOUDY    61  58  91 SE8       29.99F FOG
PELLSTON       LGT RAIN  57  56  96 SE12      29.93F FOG
TRAVERSE CITY  RAIN      57  55  93 SE3       29.90S FOG
$$
MIZ007>008-015-021700-
EASTERN UPPER MICHIGAN

CITY           SKY/WX    TMP DP  RH WIND       PRES   REMARKS
MACKINAC ISLAN LGT RAIN  57  56  99 SE8       29.93F
NEWBERRY       CLOUDY    55  55  98 S10G16    29.91S FOG
S. S. MARIE    LGT RAIN  57  55  93 E7        29.95F FOG
$$
MIZ004>006-011>014-085-021700-
CENTRAL UPPER MICHIGAN

CITY           SKY/WX    TMP DP  RH WIND       PRES   REMARKS
MANISTIQUE     CLOUDY    57  56  97 SE13      29.89S FOG
SAWYER-GWINN   CLOUDY    55  54  94 S6        29.86F FOG
$$
MIZ001>003-009>011-084-021700-
WESTERN UPPER MICHIGAN

CITY           SKY/WX    TMP DP  RH WIND       PRES   REMARKS
IRON MOUNTAIN  CLOUDY    57  54  89 CALM      29.84F FOG
HOUGHTON       CLOUDY    57  53  86 SE3       29.84F FOG
COPPER HARBOR    N/A     59  54  83 SW5       29.85F
$$

ABBREVIATIONS USED IN REMARKS
   TC - TEMPERATURE IN CELSIUS
  WCI - WIND CHILL INDEX
   HX - HEAT INDEX
  VSB - VISIBILITY




USA.gov is the U.S. government's official web portal to all federal, state and local government web resources and services.